Volver al catálogo

STARLINK-37734

ActivoComunicacionesSSO
NORAD 69305·PAYLOAD·🇺🇸 United States

Lanzado May 30, 2026 desde Vandenberg Space Force Base

Loading…

Próximos Pases (próximas 24 horas)

TLE

ActualizadoSource: CelesTrak SupGP

Época: Sep 14, 2026, 23:02 UTC

1 69305C 26119K   26257.96020833  .00041738  00000+0  12957-2 0  2570
2 69305  97.2828 282.7692 0001096  94.1867 270.5456 15.33416990    19

Sigue STARLINK-37734 en tiempo real con AllMySat

Download on the App Store